{"data":{"norad_id":68885,"intl_designator":"2026-095X","name":"KUIPER-00504","alt_names":[],"object_type":"PAYLOAD","status":"ACTIVE","operator":null,"country":"US","launch_date":"2026-04-28","launch_site_code":"AFETR","launch_vehicle":null,"mission":null,"orbit_class":"UNKNOWN","rcs_meters":null,"size_class":null,"mass_kg":null,"dimensions":null,"purposes":[],"wikipedia_slug":null,"has_3d_model":false,"image_url":null,"decayed_at":null,"tle_current":{"epoch":"2026-05-25T04:00:03.998880Z","epoch_age_seconds":71166,"freshness":"FRESH","line1":"1 68885U 26095X   26145.16671295 -.01171972  00000+0 -10875+0 0  9991","line2":"2 68885  51.9166 357.6266 0012196 241.7376 182.1279 14.96794238  4556","mean_motion":14.96794238,"eccentricity":0.0012196,"inclination_deg":51.9166,"raan_deg":357.6266,"arg_perigee_deg":241.7376,"mean_anomaly_deg":182.1279,"bstar":-0.10875,"rev_number":455,"period_min":96.205608188612,"perigee_km":568.32691614999,"apogee_km":585.29142084419,"semimajor_km":6954.9461684971,"source":"CELESTRAK","updated_at":"2026-05-25T13:38:08.650045Z"}}}